Location: ?????
(31.8092°N, 35.2590°E)
Time: 03:12:11
(UTC+00:00)

Cosmos 2360 Rocket - Pass Details

Date: 19 October 2021
Orbit: 832 x 846 km, 71.0° (Epoch: 07 December)

Event Time Altitude Azimuth Distance (km) Brightness Sun altitude
Rises 16:04:11 0° 166° (SSE) 3,365 5.2 -13.9°
Reaches altitude 10° 16:07:02 10° 153° (SSE) 2,437 4.4 -14.5°
Maximum altitude 16:11:24 24° 101° (ESE) 1,673 3.2 -15.4°
Enters shadow 16:11:56 24° 93° (E) 1,688 3.1 -15.5°
